Tatalina, AK

12:50 PM AKST on December 13, 2017 (GMT -0900)
Tatalina

Weather History for PATL - May, 2014

Change the Weather History Date:

Friday, May 9, 2014

  Actual Average Record
Temperature  
Mean Temperature 44 °F -  
Max Temperature 52 °F 46 °F 66 °F (2005)
Min Temperature 35 °F 32 °F 26 °F (2001)
Degree Days  
Heating Degree Days 22    
Moisture  
Dew Point 32 °F    
Average Humidity 62    
Maximum Humidity 82    
Minimum Humidity 51    
Precipitation  
Precipitation 0.00 in - - ()
Sea Level Pressure  
Sea Level Pressure 30.20 in    
Wind  
Wind Speed 4 mph (NW)    
Max Wind Speed 7 mph    
Max Gust Speed -    
Visibility 10 miles    
Events Rain    
Averages and records for this station are not official NWS values.
T = Trace of Precipitation, MM = Missing Value Source: NWS Daily Summary

Daily Weather History Graph

Daily Weather History Graph

Search for Another Location

Airport or City:

Trip Planner

Search our weather history database for the weather conditions in past years. The results will help you decide how hot, cold, wet, or windy it might be!

Date:

Astronomy

May. 09, 2014 Rise Set
Actual Time 5:39 AM AKDT 11:03 PM AKDT
Civil Twilight 4:26 AM AKDT 12:18 AM AKDT
Nautical Twilight 2:52 AM AKDT Sun does not rise
Astronomical Twilight Sun does not rise Sun does not rise
Moon 4:33 PM AKDT (5/9) 4:33 AM AKDT (5/9)
Length of Visible Light 19h 52m
Length of Day
17h 24m
Waxing Gibbous, 75% of the Moon is Illuminated
May 9
Waxing Gibbous
May 14
Full
May 21
Last Quarter
May 28
New
Jun 5
First Quarter

Hourly Weather History & Observations

Time (AKDT) Temp. Windchill Dew Point Humidity Pressure Visibility Wind Dir Wind Speed Gust Speed Precip Events Conditions
12:55 AM 40.5 °F 36.5 °F 28.4 °F 62% 30.09 in 10.0 mi WNW 5.8 mph - N/A   Overcast
1:55 AM 39.7 °F - 28.2 °F 63% 30.11 in 10.0 mi North 2.3 mph - N/A   Overcast
2:55 AM 39.4 °F - 29.3 °F 67% 30.12 in 10.0 mi North 2.3 mph - N/A   Overcast
3:55 AM 38.7 °F - 30.2 °F 72% 30.14 in 10.0 mi NNW 2.3 mph - N/A   Mostly Cloudy
4:55 AM 36.9 °F - 30.2 °F 77% 30.14 in 10.0 mi North 1.2 mph - N/A   Overcast
5:55 AM 36.7 °F - 29.7 °F 76% 30.15 in 10.0 mi East 2.3 mph - N/A   Overcast
6:55 AM 37.8 °F - 30.4 °F 75% 30.17 in 10.0 mi North 1.2 mph - N/A   Mostly Cloudy
7:55 AM 35.2 °F - 30.4 °F 82% 30.19 in 10.0 mi WNW 2.3 mph - N/A   Clear
8:55 AM 38.8 °F - 30.6 °F 72% 30.19 in 10.0 mi Variable 2.3 mph - N/A   Mostly Cloudy
9:55 AM 41.0 °F - 30.2 °F 65% 30.17 in 10.0 mi Variable 2.3 mph - N/A   Partly Cloudy
10:55 AM 43.9 °F 40.5 °F 30.9 °F 60% 30.20 in 10.0 mi SW 5.8 mph - N/A   Scattered Clouds
11:55 AM 45.9 °F 43.6 °F 31.3 °F 57% 30.21 in 10.0 mi Variable 4.6 mph - N/A   Overcast
12:55 PM 46.6 °F - 31.5 °F 56% 30.21 in 10.0 mi Variable 3.5 mph - N/A   Mostly Cloudy
1:55 PM 48.2 °F - 31.3 °F 52% 30.22 in 10.0 mi SSW 6.9 mph - N/A   Mostly Cloudy
2:55 PM 49.1 °F - 31.6 °F 51% 30.21 in 10.0 mi Variable 2.3 mph - N/A   Overcast
3:55 PM 50.0 °F - 32.4 °F 51% 30.22 in 10.0 mi Variable 4.6 mph - N/A   Mostly Cloudy
4:55 PM 50.0 °F - 33.6 °F 53% 30.22 in 10.0 mi West 4.6 mph - 0.00 in Rain Light Rain
5:26 PM 50.0 °F - 33.8 °F 54% 30.22 in 10.0 mi Variable 3.5 mph - N/A   Mostly Cloudy
5:55 PM 50.9 °F - 33.6 °F 52% 30.22 in 10.0 mi Variable 5.8 mph - N/A   Mostly Cloudy
6:55 PM 52.0 °F - 34.2 °F 51% 30.23 in 10.0 mi Variable 5.8 mph - N/A   Mostly Cloudy
7:55 PM 50.9 °F - 34.3 °F 53% 30.25 in 10.0 mi West 3.5 mph - N/A   Scattered Clouds
8:41 PM 48.2 °F - 37.4 °F 66% 30.25 in 10.0 mi Variable 3.5 mph - N/A Rain Light Rain
8:55 PM 49.8 °F - 36.1 °F 59% 30.25 in 10.0 mi WNW 4.6 mph - 0.00 in Rain Light Rain Showers
9:11 PM 50.0 °F - 35.6 °F 58% 30.25 in 10.0 mi West 4.6 mph - N/A   Scattered Clouds
9:55 PM 48.7 °F - 34.9 °F 59% 30.26 in 10.0 mi Variable 3.5 mph - N/A   Clear
10:55 PM 45.5 °F 41.8 °F 35.1 °F 67% 30.28 in 10.0 mi WNW 6.9 mph - N/A   Clear
11:55 PM 44.2 °F 41.0 °F 35.4 °F 71% 30.30 in 10.0 mi NNW 5.8 mph - N/A   Clear